Retour au catalogue

STARLINK-30084

ActifCommunicationsVLEO
NORAD 56825·PAYLOAD·🇺🇸 United States

Lancé Jun 4, 2023 depuis Cape Canaveral Space Force Station

Loading…

Prochains Passages (prochaines 24 heures)

TLE

FraisSource: CelesTrak SupGP

Époque: Sep 15, 2026, 02:24 UTC

1 56825C 23079C   26258.10048611  .00059753  00000+0  21649-2 0  2581
2 56825  43.0012 116.9966 0001617 279.1389 329.6440 15.27538407    11

Suivez STARLINK-30084 en temps réel avec AllMySat

Download on the App Store